Time,TemperatureF,DewpointF,PressureIn,WindDirection,WindDirectionDegrees,WindSpeedMPH,WindSpeedGustMPH,Humidity,HourlyPrecipIn,Conditions,Clouds,dailyrainin,SolarRadiationWatts/m^2,SoftwareType,DateUTC
2013-03-19 00:00:00,38.4,35.2,29.83,SW,224,1.0,1.0,88,0.00,,,0.64,0,Wunderground v.1.15,2013-03-19 04:00:00,
2013-03-19 00:04:00,38.3,35.1,29.83,SW,224,1.0,1.0,88,0.00,,,0.00,0,Wunderground v.1.15,2013-03-19 04:04:00,
2013-03-19 00:09:00,38.3,35.3,29.82,SW,234,1.0,1.0,89,0.00,,,0.00,0,Wunderground v.1.15,2013-03-19 04:09:00,
2013-03-19 00:15:00,38.3,35.3,29.82,West,262,1.0,1.0,89,0.00,,,0.00,0,Wunderground v.1.15,2013-03-19 04:15:00,
2013-03-19 00:24:00,38.0,35.0,29.83,WSW,251,0.0,1.0,89,0.00,,,0.00,0,Wunderground v.1.15,2013-03-19 04:24:00,
2013-03-19 00:30:00,37.9,35.2,29.83,WSW,237,0.0,0.0,90,0.00,,,0.00,0,Wunderground v.1.15,2013-03-19 04:30:00,
2013-03-19 00:39:00,37.8,35.1,29.83,SSW,213,1.0,4.0,90,0.00,,,0.00,0,Wunderground v.1.15,2013-03-19 04:39:00,
2013-03-19 00:45:00,37.7,35.0,29.83,SSW,213,0.0,4.0,90,0.00,,,0.00,0,Wunderground v.1.15,2013-03-19 04:45:00,
2013-03-19 00:50:00,37.7,35.3,29.83,SW,236,1.0,1.0,91,0.00,,,0.00,0,Wunderground v.1.15,2013-03-19 04:50:00,
2013-03-19 01:00:00,37.7,35.3,29.83,West,262,1.0,1.0,91,0.00,,,0.00,0,Wunderground v.1.15,2013-03-19 05:00:00,
2013-03-19 01:05:00,37.7,35.3,29.83,West,268,1.0,1.0,91,0.00,,,0.00,0,Wunderground v.1.15,2013-03-19 05:05:00,
2013-03-19 01:15:00,37.8,35.4,29.83,West,274,2.0,2.0,91,0.00,,,0.00,0,Wunderground v.1.15,2013-03-19 05:15:00,
2013-03-19 01:20:00,37.8,35.4,29.83,WSW,252,2.0,2.0,91,0.00,,,0.00,0,Wunderground v.1.15,2013-03-19 05:20:00,
2013-03-19 01:29:00,38.0,35.6,29.83,SW,222,2.0,2.0,91,0.00,,,0.00,0,Wunderground v.1.15,2013-03-19 05:29:00,
2013-03-19 01:35:00,38.1,35.7,29.83,WSW,237,3.0,3.0,91,0.00,,,0.00,0,Wunderground v.1.15,2013-03-19 05:35:00,
2013-03-19 01:45:00,38.3,35.6,29.84,West,276,3.0,3.0,90,0.00,,,0.00,0,Wunderground v.1.15,2013-03-19 05:45:00,
2013-03-19 01:50:00,38.4,35.7,29.85,West,280,4.0,4.0,90,0.00,,,0.00,0,Wunderground v.1.15,2013-03-19 05:50:00,
2013-03-19 02:00:00,38.3,35.6,29.85,WSW,250,3.0,3.0,90,0.00,,,0.00,0,Wunderground v.1.15,2013-03-19 06:00:00,
2013-03-19 02:05:00,38.4,35.7,29.85,West,279,2.0,3.0,90,0.00,,,0.00,0,Wunderground v.1.15,2013-03-19 06:05:00,
2013-03-19 02:15:00,38.5,35.5,29.85,WSW,253,3.0,4.0,89,0.00,,,0.00,0,Wunderground v.1.15,2013-03-19 06:15:00,
2013-03-19 02:20:00,38.5,35.5,29.86,SW,226,4.0,4.0,89,0.00,,,0.00,0,Wunderground v.1.15,2013-03-19 06:20:00,
2013-03-19 02:30:00,38.7,35.5,29.86,WSW,249,5.0,5.0,88,0.00,,,0.00,0,Wunderground v.1.15,2013-03-19 06:30:00,
2013-03-19 02:39:00,39.1,35.6,29.87,West,265,5.0,5.0,87,0.00,,,0.00,0,Wunderground v.1.15,2013-03-19 06:39:00,
2013-03-19 02:45:00,39.2,35.7,29.87,West,262,6.0,6.0,87,0.00,,,0.00,0,Wunderground v.1.15,2013-03-19 06:45:00,
2013-03-19 02:50:00,39.3,35.5,29.88,NW,307,6.0,7.0,86,0.00,,,0.00,0,Wunderground v.1.15,2013-03-19 06:50:00,
2013-03-19 03:00:00,39.7,35.6,29.88,West,266,8.0,10.0,85,0.00,,,0.00,0,Wunderground v.1.15,2013-03-19 07:00:00,
2013-03-19 03:09:00,39.6,35.5,29.88,West,270,7.0,7.0,85,0.00,,,0.00,0,Wunderground v.1.15,2013-03-19 07:09:00,
2013-03-19 03:15:00,39.5,35.4,29.89,West,266,7.0,7.0,85,0.00,,,0.00,0,Wunderground v.1.15,2013-03-19 07:15:00,
2013-03-19 03:24:00,39.4,35.3,29.89,West,276,8.0,12.0,85,0.00,,,0.00,0,Wunderground v.1.15,2013-03-19 07:24:00,
2013-03-19 03:30:00,39.3,35.2,29.89,WNW,284,8.0,8.0,85,0.00,,,0.00,0,Wunderground v.1.15,2013-03-19 07:30:00,
2013-03-19 03:39:00,39.1,35.3,29.89,West,264,8.0,8.0,86,0.00,,,0.00,0,Wunderground v.1.15,2013-03-19 07:39:00,
2013-03-19 03:45:00,38.8,35.0,29.89,SW,235,7.0,8.0,86,0.00,,,0.00,0,Wunderground v.1.15,2013-03-19 07:45:00,
2013-03-19 03:54:00,38.3,34.5,29.89,West,265,6.0,7.0,86,0.00,,,0.00,0,Wunderground v.1.15,2013-03-19 07:54:00,
2013-03-19 04:00:00,38.2,34.7,29.89,SW,220,6.0,6.0,87,0.00,,,0.00,0,Wunderground v.1.15,2013-03-19 08:00:00,
2013-03-19 04:05:00,38.0,34.2,29.89,WNW,287,7.0,7.0,86,0.00,,,0.00,0,Wunderground v.1.15,2013-03-19 08:05:00,
2013-03-19 04:15:00,37.6,33.8,29.89,NW,306,6.0,8.0,86,0.00,,,0.00,0,Wunderground v.1.15,2013-03-19 08:15:00,
2013-03-19 04:20:00,37.4,33.6,29.89,West,275,6.0,9.0,86,0.00,,,0.00,0,Wunderground v.1.15,2013-03-19 08:20:00,
2013-03-19 04:30:00,37.2,31.9,29.90,NW,310,9.0,12.0,81,0.00,,,0.00,0,Wunderground v.1.15,2013-03-19 08:30:00,
2013-03-19 04:40:00,36.7,31.1,29.90,West,272,9.0,11.0,80,0.00,,,0.00,0,Wunderground v.1.15,2013-03-19 08:40:00,
2013-03-19 04:45:00,36.5,30.6,29.91,West,265,9.0,11.0,79,0.00,,,0.00,0,Wunderground v.1.15,2013-03-19 08:45:00,
2013-03-19 04:54:00,35.9,27.7,29.90,WNW,285,10.0,10.0,72,0.00,,,0.00,0,Wunderground v.1.15,2013-03-19 08:54:00,
2013-03-19 05:00:00,35.6,27.5,29.90,WNW,283,9.0,9.0,72,0.00,,,0.00,0,Wunderground v.1.15,2013-03-19 09:00:00,
2013-03-19 05:10:00,35.2,27.7,29.90,West,264,8.0,8.0,74,0.00,,,0.00,0,Wunderground v.1.15,2013-03-19 09:10:00,
2013-03-19 05:15:00,34.9,26.8,29.90,WNW,299,8.0,11.0,72,0.00,,,0.00,0,Wunderground v.1.15,2013-03-19 09:15:00,
2013-03-19 05:24:00,34.6,26.2,29.90,West,273,9.0,9.0,71,0.00,,,0.00,0,Wunderground v.1.15,2013-03-19 09:24:00,
2013-03-19 05:30:00,34.3,26.2,29.91,NW,315,9.0,9.0,72,0.00,,,0.00,0,Wunderground v.1.15,2013-03-19 09:30:00,
2013-03-19 05:39:00,34.0,26.3,29.91,WNW,294,9.0,13.0,73,0.00,,,0.00,0,Wunderground v.1.15,2013-03-19 09:39:00,
2013-03-19 05:45:00,33.8,26.1,29.92,West,264,9.0,13.0,73,0.00,,,0.00,0,Wunderground v.1.15,2013-03-19 09:45:00,
2013-03-19 05:55:00,33.4,25.3,29.92,West,276,9.0,10.0,72,0.00,,,0.00,0,Wunderground v.1.15,2013-03-19 09:55:00,
2013-03-19 06:00:00,33.2,25.5,29.93,West,273,8.0,8.0,73,0.00,,,0.00,0,Wunderground v.1.15,2013-03-19 10:00:00,
2013-03-19 06:10:00,32.9,25.2,29.94,WNW,286,7.0,7.0,73,0.00,,,0.00,0,Wunderground v.1.15,2013-03-19 10:10:00,
2013-03-19 06:15:00,32.8,25.1,29.94,West,276,8.0,8.0,73,0.00,,,0.00,0,Wunderground v.1.15,2013-03-19 10:15:00,
2013-03-19 06:25:00,32.5,25.1,29.94,West,271,7.0,11.0,74,0.00,,,0.00,0,Wunderground v.1.15,2013-03-19 10:25:00,
2013-03-19 06:34:00,32.2,25.2,29.94,West,270,6.0,6.0,75,0.00,,,0.00,0,Wunderground v.1.15,2013-03-19 10:34:00,
2013-03-19 06:40:00,32.0,25.0,29.94,SW,222,5.0,5.0,75,0.00,,,0.00,0,Wunderground v.1.15,2013-03-19 10:40:00,
2013-03-19 06:45:00,32.0,25.0,29.94,WNW,287,5.0,5.0,75,0.00,,,0.00,0,Wunderground v.1.15,2013-03-19 10:45:00,
2013-03-19 06:55:00,31.7,25.0,29.93,WNW,297,5.0,6.0,76,0.00,,,0.00,0,Wunderground v.1.15,2013-03-19 10:55:00,
2013-03-19 07:04:00,31.3,24.9,29.93,West,264,4.0,5.0,77,0.00,,,0.00,0,Wunderground v.1.15,2013-03-19 11:04:00,
2013-03-19 07:10:00,31.2,25.1,29.93,WNW,282,5.0,5.0,78,0.00,,,0.00,0,Wunderground v.1.15,2013-03-19 11:10:00,
2013-03-19 07:19:00,30.9,25.2,29.93,West,278,3.0,3.0,79,0.00,,,0.00,0,Wunderground v.1.15,2013-03-19 11:19:00,
2013-03-19 07:25:00,30.7,25.3,29.93,West,276,2.0,3.0,80,0.00,,,0.00,0,Wunderground v.1.15,2013-03-19 11:25:00,
2013-03-19 07:30:00,30.6,25.2,29.93,WNW,285,2.0,3.0,80,0.00,,,0.00,0,Wunderground v.1.15,2013-03-19 11:30:00,
2013-03-19 07:40:00,30.5,25.4,29.94,West,279,3.0,3.0,81,0.00,,,0.00,0,Wunderground v.1.15,2013-03-19 11:40:00,
2013-03-19 07:45:00,30.4,25.3,29.94,WNW,287,4.0,4.0,81,0.00,,,0.00,0,Wunderground v.1.15,2013-03-19 11:45:00,
2013-03-19 07:55:00,30.2,25.1,29.96,WSW,254,3.0,3.0,81,0.00,,,0.00,9,Wunderground v.1.15,2013-03-19 11:55:00,
2013-03-19 08:00:00,30.3,25.5,29.95,WSW,250,3.0,4.0,82,0.00,,,0.00,12,Wunderground v.1.15,2013-03-19 12:00:00,
2013-03-19 08:10:00,30.2,25.4,29.95,West,269,3.0,5.0,82,0.00,,,0.00,21,Wunderground v.1.15,2013-03-19 12:10:00,
2013-03-19 08:15:00,30.2,25.4,29.96,WNW,283,3.0,5.0,82,0.00,,,0.00,25,Wunderground v.1.15,2013-03-19 12:15:00,
2013-03-19 08:25:00,30.3,25.8,29.97,WSW,253,3.0,3.0,83,0.00,,,0.00,44,Wunderground v.1.15,2013-03-19 12:25:00,
2013-03-19 08:34:00,30.8,26.0,29.97,WSW,243,5.0,5.0,82,0.00,,,0.00,74,Wunderground v.1.15,2013-03-19 12:34:00,
2013-03-19 08:39:00,30.9,25.8,29.98,SW,231,6.0,8.0,81,0.00,,,0.00,90,Wunderground v.1.15,2013-03-19 12:39:00,
2013-03-19 08:45:00,31.0,25.6,29.98,WNW,283,7.0,9.0,80,0.00,,,0.00,98,Wunderground v.1.15,2013-03-19 12:45:00,
2013-03-19 08:55:00,31.1,24.7,29.98,West,264,8.0,8.0,77,0.00,,,0.00,137,Wunderground v.1.15,2013-03-19 12:55:00,
2013-03-19 09:00:00,31.2,24.5,29.98,West,266,8.0,8.0,76,0.00,,,0.00,155,Wunderground v.1.15,2013-03-19 13:00:00,
2013-03-19 09:10:00,31.3,24.0,29.99,West,264,8.0,9.0,74,0.00,,,0.00,183,Wunderground v.1.15,2013-03-19 13:10:00,
2013-03-19 09:15:00,31.5,24.5,29.99,WSW,240,8.0,9.0,75,0.00,,,0.00,199,Wunderground v.1.15,2013-03-19 13:15:00,
2013-03-19 09:24:00,31.6,23.6,29.99,SSW,195,8.0,10.0,72,0.00,,,0.00,232,Wunderground v.1.15,2013-03-19 13:24:00,
2013-03-19 09:30:00,31.7,23.4,30.00,NW,308,8.0,8.0,71,0.00,,,0.00,250,Wunderground v.1.15,2013-03-19 13:30:00,
2013-03-19 09:39:00,32.0,23.3,30.00,WNW,292,8.0,10.0,70,0.00,,,0.00,281,Wunderground v.1.15,2013-03-19 13:39:00,
2013-03-19 09:45:00,32.1,22.7,30.00,West,280,9.0,11.0,68,0.00,,,0.00,301,Wunderground v.1.15,2013-03-19 13:45:00,
2013-03-19 09:54:00,32.3,23.3,30.00,SW,228,9.0,11.0,69,0.00,,,0.00,338,Wunderground v.1.15,2013-03-19 13:54:00,
2013-03-19 10:00:00,32.5,23.1,30.00,WNW,284,11.0,11.0,68,0.00,,,0.00,353,Wunderground v.1.15,2013-03-19 14:00:00,
2013-03-19 10:05:00,32.8,22.7,30.00,West,279,10.0,19.0,66,0.00,,,0.00,373,Wunderground v.1.15,2013-03-19 14:05:00,
2013-03-19 10:15:00,33.3,22.8,30.00,SW,231,9.0,13.0,65,0.00,,,0.00,401,Wunderground v.1.15,2013-03-19 14:15:00,
2013-03-19 10:20:00,33.1,21.9,30.00,WNW,291,9.0,10.0,63,0.00,,,0.00,420,Wunderground v.1.15,2013-03-19 14:20:00,
2013-03-19 10:30:00,33.5,22.2,30.00,West,268,10.0,10.0,63,0.00,,,0.00,450,Wunderground v.1.15,2013-03-19 14:30:00,
2013-03-19 10:35:00,33.7,22.4,30.01,SW,231,11.0,11.0,63,0.00,,,0.00,466,Wunderground v.1.15,2013-03-19 14:35:00,
2013-03-19 10:45:00,34.1,21.7,30.01,West,280,12.0,19.0,60,0.00,,,0.00,499,Wunderground v.1.15,2013-03-19 14:45:00,
2013-03-19 10:50:00,34.2,21.4,30.01,WNW,282,11.0,17.0,59,0.00,,,0.00,513,Wunderground v.1.15,2013-03-19 14:50:00,
2013-03-19 11:00:00,34.8,21.1,30.00,SW,224,9.0,9.0,57,0.00,,,0.00,541,Wunderground v.1.15,2013-03-19 15:00:00,
2013-03-19 11:09:00,35.2,21.5,30.00,West,274,10.0,10.0,57,0.00,,,0.00,571,Wunderground v.1.15,2013-03-19 15:09:00,
2013-03-19 11:15:00,35.5,21.3,30.01,West,263,11.0,11.0,56,0.00,,,0.00,584,Wunderground v.1.15,2013-03-19 15:15:00,
2013-03-19 11:20:00,35.9,20.9,30.01,West,273,10.0,12.0,54,0.00,,,0.00,598,Wunderground v.1.15,2013-03-19 15:20:00,
2013-03-19 11:30:00,36.3,21.2,30.01,WNW,291,12.0,14.0,54,0.00,,,0.00,621,Wunderground v.1.15,2013-03-19 15:30:00,
2013-03-19 11:35:00,36.4,20.9,30.02,West,263,13.0,14.0,53,0.00,,,0.00,635,Wunderground v.1.15,2013-03-19 15:35:00,
2013-03-19 11:45:00,37.1,21.1,30.02,WNW,282,12.0,16.0,52,0.00,,,0.00,663,Wunderground v.1.15,2013-03-19 15:45:00,
2013-03-19 11:54:00,37.1,21.5,30.02,NW,317,12.0,12.0,53,0.00,,,0.00,684,Wunderground v.1.15,2013-03-19 15:54:00,
2013-03-19 12:00:00,37.5,21.9,30.03,WNW,285,11.0,11.0,53,0.00,,,0.00,693,Wunderground v.1.15,2013-03-19 16:00:00,
2013-03-19 12:05:00,37.7,20.2,30.03,WSW,248,11.0,11.0,49,0.00,,,0.00,705,Wunderground v.1.15,2013-03-19 16:05:00,
2013-03-19 12:15:00,38.1,20.1,30.03,West,263,11.0,13.0,48,0.00,,,0.00,722,Wunderground v.1.15,2013-03-19 16:15:00,
2013-03-19 12:24:00,38.9,20.9,30.04,WNW,295,11.0,12.0,48,0.00,,,0.00,738,Wunderground v.1.15,2013-03-19 16:24:00,
2013-03-19 12:30:00,39.2,19.6,30.04,SW,220,11.0,11.0,45,0.00,,,0.00,749,Wunderground v.1.15,2013-03-19 16:30:00,
2013-03-19 12:35:00,39.5,20.4,30.04,West,262,11.0,11.0,46,0.00,,,0.00,754,Wunderground v.1.15,2013-03-19 16:35:00,
2013-03-19 12:45:00,39.5,19.9,30.04,West,263,11.0,14.0,45,0.00,,,0.00,770,Wunderground v.1.15,2013-03-19 16:45:00,
2013-03-19 12:50:00,39.6,20.5,30.04,WSW,253,12.0,12.0,46,0.00,,,0.00,777,Wunderground v.1.15,2013-03-19 16:50:00,
2013-03-19 13:00:00,39.9,18.6,30.04,West,261,11.0,11.0,42,0.00,,,0.00,791,Wunderground v.1.15,2013-03-19 17:00:00,
2013-03-19 13:05:00,40.2,19.5,30.04,WSW,251,12.0,15.0,43,0.00,,,0.00,798,Wunderground v.1.15,2013-03-19 17:05:00,
2013-03-19 13:15:00,40.5,19.2,30.05,WSW,258,13.0,19.0,42,0.00,,,0.00,803,Wunderground v.1.15,2013-03-19 17:15:00,
2013-03-19 13:20:00,40.9,19.0,30.05,WNW,285,15.0,15.0,41,0.00,,,0.00,807,Wunderground v.1.15,2013-03-19 17:20:00,
2013-03-19 13:30:00,41.4,19.4,30.05,WNW,293,14.0,14.0,41,0.00,,,0.00,816,Wunderground v.1.15,2013-03-19 17:30:00,
2013-03-19 13:39:00,41.9,19.3,30.05,WNW,285,12.0,12.0,40,0.00,,,0.00,823,Wunderground v.1.15,2013-03-19 17:39:00,
2013-03-19 13:45:00,41.9,18.1,30.06,NNW,328,13.0,14.0,38,0.00,,,0.00,824,Wunderground v.1.15,2013-03-19 17:45:00,
2013-03-19 13:50:00,42.0,18.2,30.06,West,264,13.0,20.0,38,0.00,,,0.00,788,Wunderground v.1.15,2013-03-19 17:50:00,
2013-03-19 14:00:00,42.1,18.9,30.06,West,278,14.0,14.0,39,0.00,,,0.00,824,Wunderground v.1.15,2013-03-19 18:00:00,
2013-03-19 14:05:00,42.2,17.8,30.07,WNW,289,13.0,14.0,37,0.00,,,0.00,826,Wunderground v.1.15,2013-03-19 18:05:00,
2013-03-19 14:15:00,42.7,18.2,30.06,NW,308,15.0,18.0,37,0.00,,,0.00,828,Wunderground v.1.15,2013-03-19 18:15:00,
2013-03-19 14:25:00,42.7,18.2,30.06,WNW,283,14.0,16.0,37,0.00,,,0.00,826,Wunderground v.1.15,2013-03-19 18:25:00,
2013-03-19 14:34:00,43.4,16.9,30.06,West,268,12.0,13.0,34,0.00,,,0.00,823,Wunderground v.1.15,2013-03-19 18:34:00,
2013-03-19 14:40:00,43.6,18.4,30.05,WNW,289,12.0,12.0,36,0.00,,,0.00,817,Wunderground v.1.15,2013-03-19 18:40:00,
2013-03-19 14:49:00,44.2,18.9,30.06,WSW,242,11.0,17.0,36,0.00,,,0.00,809,Wunderground v.1.15,2013-03-19 18:49:00,
2013-03-19 14:55:00,44.0,18.7,30.06,WNW,285,11.0,17.0,36,0.00,,,0.00,810,Wunderground v.1.15,2013-03-19 18:55:00,
2013-03-19 15:05:00,44.1,18.8,30.05,WNW,284,14.0,14.0,36,0.00,,,0.00,800,Wunderground v.1.15,2013-03-19 19:05:00,
2013-03-19 15:10:00,44.3,17.7,30.05,SW,220,12.0,12.0,34,0.00,,,0.00,698,Wunderground v.1.15,2013-03-19 19:10:00,
2013-03-19 15:19:00,44.0,16.7,30.06,West,272,12.0,12.0,33,0.00,,,0.00,777,Wunderground v.1.15,2013-03-19 19:19:00,
2013-03-19 15:25:00,43.8,16.5,30.06,WNW,295,13.0,14.0,33,0.00,,,0.00,800,Wunderground v.1.15,2013-03-19 19:25:00,
2013-03-19 15:34:00,44.7,17.3,30.05,WNW,291,12.0,12.0,33,0.00,,,0.00,703,Wunderground v.1.15,2013-03-19 19:34:00,
2013-03-19 15:40:00,45.1,17.0,30.05,NW,326,13.0,13.0,32,0.00,,,0.00,782,Wunderground v.1.15,2013-03-19 19:40:00,
2013-03-19 15:50:00,45.4,18.6,30.06,West,278,11.0,13.0,34,0.00,,,0.00,686,Wunderground v.1.15,2013-03-19 19:50:00,
2013-03-19 15:55:00,45.4,17.9,30.05,NW,305,12.0,13.0,33,0.00,,,0.00,719,Wunderground v.1.15,2013-03-19 19:55:00,
2013-03-19 16:04:00,45.9,17.7,30.06,WNW,284,10.0,19.0,32,0.00,,,0.00,643,Wunderground v.1.15,2013-03-19 20:04:00,
2013-03-19 16:10:00,45.5,15.8,30.05,NW,308,11.0,14.0,30,0.00,,,0.00,724,Wunderground v.1.15,2013-03-19 20:10:00,
2013-03-19 16:20:00,45.7,16.7,30.06,West,277,12.0,12.0,31,0.00,,,0.00,629,Wunderground v.1.15,2013-03-19 20:20:00,
2013-03-19 16:29:00,46.1,17.8,30.06,NW,307,9.0,9.0,32,0.00,,,0.00,659,Wunderground v.1.15,2013-03-19 20:29:00,
2013-03-19 16:35:00,46.6,15.2,30.06,WNW,302,10.0,11.0,28,0.00,,,0.00,675,Wunderground v.1.15,2013-03-19 20:35:00,
2013-03-19 16:44:00,46.0,15.5,30.05,WNW,295,13.0,13.0,29,0.00,,,0.00,592,Wunderground v.1.15,2013-03-19 20:44:00,
2013-03-19 16:50:00,46.5,16.7,30.06,WSW,237,11.0,11.0,30,0.00,,,0.00,612,Wunderground v.1.15,2013-03-19 20:50:00,
2013-03-19 16:59:00,46.3,14.1,30.05,NW,306,12.0,12.0,27,0.00,,,0.00,587,Wunderground v.1.15,2013-03-19 20:59:00,
2013-03-19 17:05:00,46.4,17.4,30.06,WNW,303,11.0,12.0,31,0.00,,,0.00,575,Wunderground v.1.15,2013-03-19 21:05:00,
2013-03-19 17:14:00,46.6,15.2,30.06,NW,320,10.0,10.0,28,0.00,,,0.00,522,Wunderground v.1.15,2013-03-19 21:14:00,
2013-03-19 17:20:00,46.1,13.1,30.06,NW,311,12.0,16.0,26,0.00,,,0.00,360,Wunderground v.1.15,2013-03-19 21:20:00,
2013-03-19 17:25:00,45.9,14.6,30.06,NW,311,12.0,16.0,28,0.00,,,0.00,420,Wunderground v.1.15,2013-03-19 21:25:00,
2013-03-19 17:35:00,45.8,15.3,30.06,WNW,300,9.0,12.0,29,0.00,,,0.00,371,Wunderground v.1.15,2013-03-19 21:35:00,
2013-03-19 17:45:00,46.4,16.6,30.06,WNW,293,8.0,11.0,30,0.00,,,0.00,390,Wunderground v.1.15,2013-03-19 21:45:00,
2013-03-19 17:54:00,46.5,16.7,30.06,NW,315,10.0,12.0,30,0.00,,,0.00,443,Wunderground v.1.15,2013-03-19 21:54:00,
2013-03-19 18:00:00,46.3,15.7,30.06,NW,307,10.0,10.0,29,0.00,,,0.00,241,Wunderground v.1.15,2013-03-19 22:00:00,
2013-03-19 18:09:00,45.6,15.1,30.06,NW,318,9.0,14.0,29,0.00,,,0.00,288,Wunderground v.1.15,2013-03-19 22:09:00,
2013-03-19 18:15:00,45.5,14.2,30.06,West,261,10.0,14.0,28,0.00,,,0.00,260,Wunderground v.1.15,2013-03-19 22:15:00,
2013-03-19 18:24:00,45.1,15.5,30.06,WNW,299,9.0,10.0,30,0.00,,,0.00,229,Wunderground v.1.15,2013-03-19 22:24:00,
2013-03-19 18:30:00,45.2,16.3,30.06,WNW,289,9.0,9.0,31,0.00,,,0.00,204,Wunderground v.1.15,2013-03-19 22:30:00,
2013-03-19 18:35:00,45.2,17.0,30.06,WNW,300,8.0,9.0,32,0.00,,,0.00,113,Wunderground v.1.15,2013-03-19 22:35:00,
2013-03-19 18:45:00,44.9,16.0,30.06,WNW,303,6.0,7.0,31,0.00,,,0.00,118,Wunderground v.1.15,2013-03-19 22:45:00,
2013-03-19 18:50:00,44.5,14.9,30.07,WNW,287,8.0,12.0,30,0.00,,,0.00,107,Wunderground v.1.15,2013-03-19 22:50:00,
2013-03-19 19:00:00,44.3,16.3,30.07,WNW,302,8.0,8.0,32,0.00,,,0.00,69,Wunderground v.1.15,2013-03-19 23:00:00,
2013-03-19 19:05:00,44.2,17.6,30.07,West,267,8.0,8.0,34,0.00,,,0.00,74,Wunderground v.1.15,2013-03-19 23:05:00,
2013-03-19 19:15:00,44.0,15.3,30.08,WNW,290,9.0,9.0,31,0.00,,,0.00,51,Wunderground v.1.15,2013-03-19 23:15:00,
2013-03-19 19:20:00,43.6,14.2,30.08,NW,321,9.0,9.0,30,0.00,,,0.00,44,Wunderground v.1.15,2013-03-19 23:20:00,
2013-03-19 19:30:00,43.0,14.4,30.08,NW,308,7.0,7.0,31,0.00,,,0.00,30,Wunderground v.1.15,2013-03-19 23:30:00,
2013-03-19 19:39:00,42.7,14.8,30.08,WNW,302,6.0,6.0,32,0.00,,,0.00,12,Wunderground v.1.15,2013-03-19 23:39:00,
2013-03-19 19:45:00,42.6,15.5,30.08,WNW,287,6.0,6.0,33,0.00,,,0.00,11,Wunderground v.1.15,2013-03-19 23:45:00,
2013-03-19 19:50:00,42.5,16.7,30.08,WNW,299,4.0,5.0,35,0.00,,,0.00,0,Wunderground v.1.15,2013-03-19 23:50:00,
2013-03-19 20:00:00,42.3,16.6,30.08,WSW,251,3.0,3.0,35,0.00,,,0.00,0,Wunderground v.1.15,2013-03-20 00:00:00,
2013-03-19 20:10:00,41.9,17.5,30.08,West,275,2.0,2.0,37,0.00,,,0.00,0,Wunderground v.1.15,2013-03-20 00:10:00,
2013-03-19 20:15:00,41.7,17.9,30.08,West,277,3.0,4.0,38,0.00,,,0.00,0,Wunderground v.1.15,2013-03-20 00:15:00,
2013-03-19 20:25:00,41.8,16.8,30.09,West,281,7.0,8.0,36,0.00,,,0.00,0,Wunderground v.1.15,2013-03-20 00:25:00,
2013-03-19 20:30:00,41.6,15.9,30.09,West,270,7.0,7.0,35,0.00,,,0.00,0,Wunderground v.1.15,2013-03-20 00:30:00,
2013-03-19 20:40:00,41.3,16.3,30.09,WNW,293,5.0,5.0,36,0.00,,,0.00,0,Wunderground v.1.15,2013-03-20 00:40:00,
2013-03-19 20:45:00,41.1,16.8,30.09,West,280,4.0,5.0,37,0.00,,,0.00,0,Wunderground v.1.15,2013-03-20 00:45:00,
2013-03-19 20:55:00,40.9,16.6,30.09,WNW,301,4.0,5.0,37,0.00,,,0.00,0,Wunderground v.1.15,2013-03-20 00:55:00,
2013-03-19 21:00:00,40.8,16.5,30.09,WNW,286,3.0,3.0,37,0.00,,,0.00,0,Wunderground v.1.15,2013-03-20 01:00:00,
2013-03-19 21:09:00,40.4,17.4,30.09,WNW,285,1.0,1.0,39,0.00,,,0.00,0,Wunderground v.1.15,2013-03-20 01:09:00,
2013-03-19 21:15:00,40.1,18.3,30.09,WNW,285,1.0,2.0,41,0.00,,,0.00,0,Wunderground v.1.15,2013-03-20 01:15:00,
2013-03-19 21:25:00,39.7,18.5,30.09,WNW,295,1.0,2.0,42,0.00,,,0.00,0,Wunderground v.1.15,2013-03-20 01:25:00,
2013-03-19 21:30:00,39.5,18.8,30.09,West,280,1.0,1.0,43,0.00,,,0.00,0,Wunderground v.1.15,2013-03-20 01:30:00,
2013-03-19 21:40:00,39.2,20.1,30.09,West,281,0.0,0.0,46,0.00,,,0.00,0,Wunderground v.1.15,2013-03-20 01:40:00,
2013-03-19 21:45:00,38.9,20.9,30.09,West,281,0.0,0.0,48,0.00,,,0.00,0,Wunderground v.1.15,2013-03-20 01:45:00,
2013-03-19 21:55:00,38.2,21.6,30.09,West,281,1.0,2.0,51,0.00,,,0.00,0,Wunderground v.1.15,2013-03-20 01:55:00,
2013-03-19 22:00:00,38.0,21.5,30.09,West,281,1.0,1.0,51,0.00,,,0.00,0,Wunderground v.1.15,2013-03-20 02:00:00,
2013-03-19 22:10:00,37.4,22.7,30.09,West,281,0.0,0.0,55,0.00,,,0.00,0,Wunderground v.1.15,2013-03-20 02:10:00,
2013-03-19 22:15:00,37.4,21.4,30.09,West,268,1.0,2.0,52,0.00,,,0.00,0,Wunderground v.1.15,2013-03-20 02:15:00,
2013-03-19 22:25:00,37.9,20.4,30.08,West,277,2.0,4.0,49,0.00,,,0.00,0,Wunderground v.1.15,2013-03-20 02:25:00,
2013-03-19 22:30:00,38.2,19.7,30.09,West,274,3.0,3.0,47,0.00,,,0.00,0,Wunderground v.1.15,2013-03-20 02:30:00,
2013-03-19 22:40:00,38.0,20.0,30.08,West,276,3.0,3.0,48,0.00,,,0.00,0,Wunderground v.1.15,2013-03-20 02:40:00,
2013-03-19 22:45:00,37.8,20.3,30.09,West,272,3.0,3.0,49,0.00,,,0.00,0,Wunderground v.1.15,2013-03-20 02:45:00,
2013-03-19 22:55:00,37.4,20.4,30.09,WNW,287,2.0,2.0,50,0.00,,,0.00,0,Wunderground v.1.15,2013-03-20 02:55:00,
2013-03-19 23:00:00,37.3,20.8,30.09,WNW,287,1.0,1.0,51,0.00,,,0.00,0,Wunderground v.1.15,2013-03-20 03:00:00,
2013-03-19 23:10:00,37.0,20.5,30.09,West,280,1.0,1.0,51,0.00,,,0.00,0,Wunderground v.1.15,2013-03-20 03:10:00,
2013-03-19 23:15:00,36.8,20.8,30.09,West,280,1.0,1.0,52,0.00,,,0.00,0,Wunderground v.1.15,2013-03-20 03:15:00,
2013-03-19 23:25:00,36.4,21.8,30.09,West,280,0.0,0.0,55,0.00,,,0.00,0,Wunderground v.1.15,2013-03-20 03:25:00,
2013-03-19 23:30:00,36.1,22.3,30.09,West,280,0.0,0.0,57,0.00,,,0.00,0,Wunderground v.1.15,2013-03-20 03:30:00,
2013-03-19 23:40:00,35.5,23.0,30.09,West,280,0.0,0.0,60,0.00,,,0.00,0,Wunderground v.1.15,2013-03-20 03:40:00,
2013-03-19 23:45:00,35.2,22.7,30.10,West,280,0.0,0.0,60,0.00,,,0.00,0,Wunderground v.1.15,2013-03-20 03:45:00,
2013-03-19 23:50:00,34.8,23.9,30.10,West,280,0.0,0.0,64,0.00,,,0.00,0,Wunderground v.1.15,2013-03-20 03:50:00,